• In Hungary
  • List of Countries
  • For 7 days
  • Water Temperature
  • Satellite Maps
  • Weather Map
  • News
  • Weather Widgets
  • user-avatar
    Login

    Hourly Weather Semarang

    Today, 24 November, Friday

    Time Temperature Precipitation Wind Pressure Humidity
    00:00 +28°C° 0.3 mm 1 mps 754 mmHg 85%
    01:00 +28°C° 0 mm 1 mps 754 mmHg 86%
    02:00 +28°C° 0.2 mm 1 mps 754 mmHg 86%
    03:00 +28°C° 0.2 mm 1 mps 754 mmHg 86%
    04:00 +28°C° 0.2 mm 1 mps 754 mmHg 86%
    05:00 +28°C° 0.1 mm 1 mps 754 mmHg 83%
    06:00 +27°C° 0.1 mm 0 mps 755 mmHg 79%
    07:00 +28°C° 0.1 mm 0 mps 755 mmHg 76%
    08:00 +31°C° 0 mm 1 mps 755 mmHg 70%
    09:00 +33°C° 0 mm 1 mps 755 mmHg 64%
    10:00 +35°C° 0 mm 2 mps 755 mmHg 57%
    11:00 +35°C° 0.4 mm 2 mps 755 mmHg 58%
    12:00 +35°C° 0.4 mm 3 mps 754 mmHg 58%
    13:00 +35°C° 0.4 mm 3 mps 754 mmHg 59%
    14:00 +35°C° 0.7 mm 3 mps 754 mmHg 63%
    15:00 +34°C° 0.7 mm 3 mps 754 mmHg 66%
    16:00 +33°C° 0.7 mm 3 mps 753 mmHg 70%
    17:00 +31°C° 1.3 mm 3 mps 754 mmHg 74%
    18:00 +31°C° 1.3 mm 2 mps 754 mmHg 78%
    19:00 +30°C° 1.3 mm 1 mps 754 mmHg 82%
    20:00 +30°C° 0.6 mm 1 mps 755 mmHg 83%
    21:00 +29°C° 0.6 mm 1 mps 755 mmHg 84%
    22:00 +29°C° 0.6 mm 1 mps 756 mmHg 85%
    23:00 +29°C° 1.1 mm 1 mps 755 mmHg 86%

    Tomorrow, 25 November, Saturday

    Time Temperature Precipitation Wind Pressure Humidity
    00:00 +29°C° 1.1 mm 2 mps 755 mmHg 86%
    01:00 +28°C° 1.1 mm 2 mps 754 mmHg 87%
    02:00 +28°C° 1.2 mm 2 mps 754 mmHg 87%
    03:00 +28°C° 1.2 mm 2 mps 754 mmHg 87%
    04:00 +28°C° 1.2 mm 2 mps 754 mmHg 87%
    05:00 +28°C° 1.2 mm 1 mps 754 mmHg 86%
    06:00 +29°C° 1.2 mm 1 mps 755 mmHg 85%
    07:00 +29°C° 1.2 mm 1 mps 755 mmHg 84%
    08:00 +29°C° 0.9 mm 1 mps 755 mmHg 82%
    09:00 +30°C° 0.9 mm 1 mps 755 mmHg 79%
    10:00 +30°C° 0.9 mm 1 mps 755 mmHg 77%
    11:00 +31°C° 0.4 mm 1 mps 755 mmHg 74%
    12:00 +32°C° 0.4 mm 1 mps 754 mmHg 71%
    13:00 +32°C° 0.4 mm 1 mps 754 mmHg 68%
    14:00 +32°C° 0.7 mm 1 mps 754 mmHg 69%
    15:00 +32°C° 0.7 mm 2 mps 753 mmHg 71%
    16:00 +32°C° 0.7 mm 2 mps 753 mmHg 72%
    17:00 +31°C° 1.9 mm 2 mps 754 mmHg 76%
    18:00 +30°C° 1.9 mm 2 mps 754 mmHg 80%
    19:00 +29°C° 1.9 mm 1 mps 755 mmHg 84%
    20:00 +29°C° 2.8 mm 1 mps 755 mmHg 85%
    21:00 +29°C° 2.8 mm 1 mps 755 mmHg 85%
    22:00 +29°C° 2.8 mm 1 mps 756 mmHg 86%
    23:00 +28°C° 0.9 mm 1 mps 755 mmHg 86%

    Day after tomorrow, 26 November, Sunday

    Time Temperature Precipitation Wind Pressure Humidity
    00:00 +28°C° 0.9 mm 1 mps 755 mmHg 87%
    01:00 +28°C° 0.9 mm 1 mps 754 mmHg 87%
    02:00 +28°C° 0.4 mm 1 mps 754 mmHg 87%
    03:00 +28°C° 0.4 mm 1 mps 754 mmHg 88%
    04:00 +28°C° 0.4 mm 1 mps 753 mmHg 88%
    05:00 +28°C° 0.2 mm 1 mps 754 mmHg 86%
    06:00 +29°C° 0.2 mm 1 mps 754 mmHg 83%
    07:00 +30°C° 0.2 mm 1 mps 755 mmHg 80%
    08:00 +31°C° 0.2 mm 1 mps 755 mmHg 74%
    09:00 +32°C° 0.2 mm 1 mps 755 mmHg 67%
    10:00 +34°C° 0.2 mm 1 mps 755 mmHg 60%
    11:00 +35°C° 0.3 mm 2 mps 755 mmHg 60%
    12:00 +35°C° 0.3 mm 3 mps 754 mmHg 60%
    13:00 +35°C° 0.3 mm 3 mps 753 mmHg 60%
    14:00 +34°C° 0.6 mm 4 mps 753 mmHg 64%
    15:00 +34°C° 0.6 mm 4 mps 752 mmHg 68%
    16:00 +33°C° 0.6 mm 4 mps 752 mmHg 72%
    17:00 +32°C° 1.5 mm 4 mps 753 mmHg 76%
    18:00 +30°C° 1.5 mm 3 mps 753 mmHg 81%
    19:00 +29°C° 1.5 mm 3 mps 754 mmHg 85%
    20:00 +29°C° 1.1 mm 3 mps 754 mmHg 85%
    21:00 +29°C° 1.1 mm 2 mps 755 mmHg 85%
    22:00 +29°C° 1.1 mm 2 mps 755 mmHg 86%
    23:00 +29°C° 0.4 mm 2 mps 754 mmHg 86%

    27 November, Monday

    Time Temperature Precipitation Wind Pressure Humidity
    00:00 +29°C° 0.4 mm 2 mps 754 mmHg 86%
    01:00 +28°C° 0.4 mm 2 mps 753 mmHg 86%
    02:00 +28°C° 0.2 mm 2 mps 753 mmHg 86%
    03:00 +28°C° 0.2 mm 2 mps 753 mmHg 86%
    04:00 +28°C° 0.2 mm 2 mps 753 mmHg 86%
    05:00 +29°C° 0.1 mm 2 mps 753 mmHg 84%
    06:00 +29°C° 0.1 mm 2 mps 754 mmHg 81%
    07:00 +30°C° 0.1 mm 2 mps 754 mmHg 79%
    08:00 +31°C° 0.2 mm 2 mps 754 mmHg 74%
    09:00 +32°C° 0.2 mm 2 mps 754 mmHg 69%
    10:00 +34°C° 0.2 mm 2 mps 754 mmHg 64%
    11:00 +34°C° 0.8 mm 3 mps 753 mmHg 64%
    12:00 +34°C° 0.8 mm 3 mps 753 mmHg 65%
    13:00 +34°C° 0.8 mm 4 mps 752 mmHg 65%
    14:00 +34°C° 1.8 mm 4 mps 752 mmHg 69%
    15:00 +33°C° 1.8 mm 4 mps 752 mmHg 74%
    16:00 +32°C° 1.8 mm 4 mps 751 mmHg 78%
    17:00 +30°C° 1.4 mm 4 mps 752 mmHg 80%
    18:00 +30°C° 1.4 mm 3 mps 753 mmHg 82%
    19:00 +29°C° 1.4 mm 3 mps 754 mmHg 84%
    20:00 +29°C° 0.9 mm 3 mps 754 mmHg 84%
    21:00 +29°C° 0.9 mm 3 mps 754 mmHg 84%
    22:00 +29°C° 0.9 mm 3 mps 754 mmHg 84%
    23:00 +29°C° 0.4 mm 3 mps 754 mmHg 84%

    28 November, Tuesday

    Time Temperature Precipitation Wind Pressure Humidity
    00:00 +28°C° 0.4 mm 3 mps 753 mmHg 84%
    01:00 +28°C° 0.4 mm 3 mps 753 mmHg 84%
    02:00 +28°C° 0.4 mm 3 mps 753 mmHg 83%
    03:00 +28°C° 0.4 mm 3 mps 752 mmHg 83%
    04:00 +28°C° 0.4 mm 3 mps 752 mmHg 82%
    05:00 +29°C° 0.1 mm 3 mps 753 mmHg 80%
    06:00 +29°C° 0.1 mm 3 mps 753 mmHg 78%
    07:00 +30°C° 0.1 mm 3 mps 754 mmHg 76%
    08:00 +31°C° 0.3 mm 3 mps 754 mmHg 71%
    09:00 +33°C° 0.3 mm 3 mps 754 mmHg 67%
    10:00 +34°C° 0.3 mm 3 mps 754 mmHg 62%
    11:00 +34°C° 0.4 mm 3 mps 753 mmHg 62%
    12:00 +34°C° 0.4 mm 4 mps 753 mmHg 62%
    13:00 +35°C° 0.4 mm 4 mps 752 mmHg 62%
    14:00 +34°C° 1.1 mm 4 mps 752 mmHg 66%
    15:00 +33°C° 1.1 mm 4 mps 752 mmHg 70%
    16:00 +32°C° 1.1 mm 4 mps 752 mmHg 74%
    17:00 +32°C° 1.7 mm 4 mps 752 mmHg 78%
    18:00 +30°C° 1.7 mm 4 mps 753 mmHg 81%
    19:00 +29°C° 1.7 mm 4 mps 753 mmHg 85%
    20:00 +29°C° 1.9 mm 4 mps 754 mmHg 86%
    21:00 +29°C° 1.9 mm 4 mps 754 mmHg 86%
    22:00 +29°C° 1.9 mm 4 mps 754 mmHg 87%
    23:00 +28°C° 1.2 mm 3 mps 753 mmHg 87%

    29 November, Wednesday

    Time Temperature Precipitation Wind Pressure Humidity
    00:00 +28°C° 1.2 mm 3 mps 753 mmHg 87%
    01:00 +28°C° 1.2 mm 3 mps 752 mmHg 87%
    02:00 +28°C° 0.3 mm 3 mps 752 mmHg 87%
    03:00 +28°C° 0.3 mm 3 mps 752 mmHg 87%
    04:00 +28°C° 0.3 mm 3 mps 752 mmHg 87%
    05:00 +28°C° 0 mm 3 mps 753 mmHg 85%
    06:00 +28°C° 0 mm 3 mps 753 mmHg 84%
    07:00 +29°C° 0 mm 2 mps 754 mmHg 83%
    08:00 +29°C° 0 mm 3 mps 754 mmHg 78%
    09:00 +30°C° 0 mm 3 mps 754 mmHg 74%
    10:00 +31°C° 0 mm 3 mps 753 mmHg 69%
    11:00 +33°C° 0 mm 3 mps 753 mmHg 67%
    12:00 +33°C° 0 mm 4 mps 752 mmHg 65%
    13:00 +34°C° 0 mm 4 mps 752 mmHg 63%
    14:00 +33°C° 0.1 mm 4 mps 752 mmHg 66%
    15:00 +33°C° 0.1 mm 4 mps 752 mmHg 69%
    16:00 +32°C° 0.1 mm 5 mps 751 mmHg 72%
    17:00 +32°C° 0.5 mm 4 mps 752 mmHg 76%
    18:00 +30°C° 0.5 mm 4 mps 753 mmHg 80%
    19:00 +29°C° 0.5 mm 4 mps 753 mmHg 83%
    20:00 +29°C° 0.7 mm 3 mps 753 mmHg 84%
    21:00 +29°C° 0.7 mm 3 mps 754 mmHg 85%
    22:00 +29°C° 0.7 mm 3 mps 754 mmHg 86%
    23:00 +28°C° 0.8 mm 2 mps 753 mmHg 86%
    Show more